Regional Weather Roundup
Issued by NWS Grand Forks, ND

Home | Current Version | Previous Version | Graphics & Text | Print | Product List | Glossary On
Versions: 1 2 3 4 5 6 7 8 9 10 11 12 13 14 15 16 17 18 19 20 21 22 23 24 25 26 27 28 29 30 31 32 33 34 35 36 37 38 39 40 41 42 43 44 45 46 47 48 49 50
000
ASUS43 KFGF 100631
RWRFGF
PRAIRIE TO PINES  WEATHER ROUNDUP
NATIONAL WEATHER SERVICE EASTERN NORTH DAKOTA/GRAND FORKS ND
1200 AM CST SAT DEC 10 2016

 **SATELLITE DATA USED TO AUGMENT SKY COVER AT AUTOMATED STATIONS**
 *****  WEATHER ACROSS EASTERN NORTH DAKOTA  *****

CITY           SKY/WX    TMP DP  RH WIND       PRES   REMARKS
GRAND FORKS    CLOUDY    -3  -8  79 NW7       30.56S WCI -16
6HR MIN TEMP:  -9; 6HR MAX TEMP:  -3;

GRAND FRKS AFB CLOUDY    -3 -10  73 N7        30.56S WCI -17
DEVILS LAKE    CLOUDY   -14 -18  82 W5        30.50F WCI -26
6HR MIN TEMP: -14; 6HR MAX TEMP:  -9;

FARGO          CLOUDY    -6 -13  71 W6        30.57R WCI -19
WAHPETON ARPT  CLEAR     -6 -13  71 NW9       30.56S WCI -22
$$

 ***** WEATHER ACROSS CENTRAL AND WESTERN NORTH DAKOTA  *****

CITY           SKY/WX    TMP DP  RH WIND       PRES   REMARKS
BISMARCK       CLOUDY   -17 -21  82 CALM      30.51F
6HR MIN TEMP: -21; 6HR MAX TEMP:  -6;

MINOT          CLOUDY   -16 -21  78 SW8       30.47F WCI -34
6HR MIN TEMP: -17; 6HR MAX TEMP: -10;

JAMESTOWN      CLOUDY   -13 -18  78 W6        30.50F WCI -27
6HR MIN TEMP: -14; 6HR MAX TEMP:  -9;

MINOT AFB      CLOUDY   -23 -29  73 W6        30.47F WCI -39
GARRISON         N/A    -18 -23  77 N5        30.44F WCI -31
WILLISTON      CLOUDY   -16 -22  74 CALM      30.42F
6HR MIN TEMP: -18; 6HR MAX TEMP:  -8;

DICKINSON      CLOUDY   -16 -21  78 S6        30.32F WCI -31
6HR MIN TEMP: -17; 6HR MAX TEMP:  -9;

HETTINGER      CLOUDY    -8 -12  83 SE5       30.34F WCI -19
6HR MIN TEMP: -13; 6HR MAX TEMP:  -6;

$$

 *****  OTHER AIRPORT OBSERVATIONS IN OUR AREA  *****

CITY           SKY/WX    TMP DP  RH WIND       PRES   REMARKS
WALHALLA         N/A     -9  -9 100 W3        30.55F
GRAFTON AIRPOR   N/A     -4 -11  71 NW9       30.58F WCI -20
VALLEY CITY AR FAIR     -15 -20  76 NW7       30.53F WCI -31
CANDO          FAIR     -17 -20  83 W7        30.52S WCI -33
CAVALIER APRT    N/A     -9 -13  84 W6        30.56S WCI -23
GWINNER        FAIR      -8 -13  77 NW9       30.53F WCI -25
SHEYENNE NWR     N/A    -10 -19  66 NW5       29.95S WCI -22
ROLLA          FAIR     -20 -26  76 CALM      30.44S
 ***** THE ABOVE OBSERVATIONS ARE NON NWS ARE NOT QUALITY
       CONTROLLED AND MAY MIS-REPORT RAIN FOR SNOW...
$$

  *****  WEATHER ACROSS NORTHERN MINNESOTA  *****

CITY           SKY/WX    TMP DP  RH WIND       PRES   REMARKS
FLAG ISLAND    CLEAR     -4  -8  84 W10       30.46S WCI -21
WARROAD        CLEAR     -8 -13  77 W5        30.48S WCI -19
ROSEAU         PTCLDY    -6 -11  77 W7        30.49F WCI -20
HALLOCK        CLOUDY    -2  -8  78 NW8       30.54S WCI -17
THF RVR FALLS  FLURRIES  -5  -9  83 NW7       30.52S WCI -19
6HR MIN TEMP: -10; 6HR MAX TEMP:  -2; 6HR PCP: TRACE;

BAUDETTE       CLEAR     -5 -10  79 W9        30.45S WCI -22
6HR MIN TEMP:  -5; 6HR MAX TEMP:   0;

WASKISH        CLOUDY     1  -6  71 NW8       30.46S WCI -12
CROOKSTON      CLOUDY    -4  -8  84 NW5       30.56S WCI -15
STEPHEN NDAWN    N/A     -2  -8  78 NW9         N/A  WCI -18
GREENBUSH NDAW   N/A    -11 -17  77 W2          N/A
$$
  *****  WEATHER ACROSS CENTRAL AND WEST MINNESOTA  *****

CITY           SKY/WX    TMP DP  RH WIND       PRES   REMARKS
FOSSTON        CLOUDY   -11 -15  84 W3        30.50R
BEMIDJI        CLOUDY    -2  -7  80 NW9       30.46R WCI -18
PARK RAPIDS    CLOUDY     1  -8  66 NW9       30.45S WCI -14
6HR MIN TEMP:   1; 6HR MAX TEMP:   4;

ELBOW LAKE     FAIR      -5  -8  86 NW8       30.52S WCI -21
WADENA         FLURRIES  -4  -8  84 CALM      30.47S
DETROIT LAKES  PTCLDY    -4  -6  92 NW6       30.49S WCI -16
MOORHEAD       CLEAR     -8 -13  77 NW6       30.56S WCI -21
FERGUS FALLS   CLOUDY    -6 -11  77 NW10      30.58S WCI -23
MORRIS MN      CLEAR     -2  -8  78 NW8       30.52S WCI -17
STAPLES        NOT AVBL
$$
  *****  WEATHER ELSEWHERE ACROSS MINNESOTA  *****

CITY           SKY/WX    TMP DP  RH WIND       PRES   REMARKS
DULUTH         CLOUDY     6  -2  69 NW8       30.40S WCI  -7
6HR MIN TEMP:   4; 6HR MAX TEMP:   8; 6HR PCP: TRACE;

INTRNTL FALLS  CLOUDY    -4  -9  79 W7        30.43S WCI -18
6HR MIN TEMP:  -4; 6HR MAX TEMP:   1;

ELY            CLOUDY     1  -2  85 W7        30.38S WCI -11
CLOQUET        FLURRIES   7   0  72 W5        30.41F WCI  -2
WHEATON        CLEAR     -2  -8  78 NW7       30.57S WCI -16
BRAINERD       PTCLDY     3  -4  72 NW8       30.46S WCI -10
6HR MIN TEMP:   4; 6HR MAX TEMP:   9; 6HR PCP: TRACE;

HIBBING        CLOUDY     2  -4  76 NW12      30.42S WCI -15
6HR MIN TEMP:   2; 6HR MAX TEMP:   4; 6HR PCP: TRACE;

ALEXANDRIA     MOCLDY    -3  -7  82 NW5       30.48F WCI -13
6HR MIN TEMP:  -4; 6HR MAX TEMP:   2;

SAINT CLOUD    CLEAR      3  -2  79 W7        30.49F WCI  -9
6HR MIN TEMP:   3; 6HR MAX TEMP:  10;

MINNEAPOLIS    CLOUDY    10   1  67 NW12      30.50F WCI  -5
6HR MIN TEMP:  10; 6HR MAX TEMP:  15; 6HR PCP: TRACE;

$$

  *****  WEATHER ACROSS SOUTH DAKOTA  *****

CITY           SKY/WX    TMP DP  RH WIND       PRES   REMARKS
SIOUX FALLS    CLOUDY    11   7  84 N6        30.48S WCI   1
6HR MIN TEMP:  11; 6HR MAX TEMP:  14; 6HR PCP:  0.01;

BROOKINGS      CLOUDY     4  -1  80 N5        30.47S WCI  -5
WATERTOWN      CLOUDY     0  -5  79 CALM      30.46S
6HR MIN TEMP:   0; 6HR MAX TEMP:   3;

HURON          CLOUDY     4   1  88 N8        30.52F WCI  -9
6HR MIN TEMP:   4; 6HR MAX TEMP:   6; 6HR PCP: TRACE;

SISSETON         N/A     -5 -10  79 NW9       30.54S WCI -22
ABERDEEN       CLOUDY    -6 -14  68 N7        30.54S WCI -20
6HR MIN TEMP:  -6; 6HR MAX TEMP:   4;

MITCHELL       CLOUDY     7   2  80 N9        30.53S WCI  -7
PIERRE         CLOUDY    -5 -10  79 NE6       30.47F WCI -18
6HR MIN TEMP:  -7; 6HR MAX TEMP:   2;

MOBRIDGE       CLOUDY    -8 -14  74 CALM      30.44F
RAPID CITY     CLOUDY     2  -2  83 SE14      30.25F WCI -16
6HR MIN TEMP:   1; 6HR MAX TEMP:   2; 6HR PCP: TRACE;

$$

  *****  SOME WEATHER IN NEARBY STATES *****

CITY           SKY/WX    TMP DP  RH WIND       PRES   REMARKS
GLASGOW MT     CLOUDY    -5 -10  79 E14       30.29S WCI -25
6HR MIN TEMP:  -5; 6HR MAX TEMP:  -2;

GREAT FALLS MT CLOUDY     0  -4  83 SE3       30.00F
6HR MIN TEMP:  -6; 6HR MAX TEMP:   0;

CHEYENNE WY    CLOUDY    26  19  74 SW12      30.04F WCI  16
6HR MIN TEMP:  25; 6HR MAX TEMP:  42;

SCOTTSBLUFF NE CLOUDY    13   5  70 E18       30.13F WCI  -4
6HR MIN TEMP:  13; 6HR MAX TEMP:  19;

OMAHA NE       CLOUDY    23  12  62 SE6       30.50S WCI  16
6HR MIN TEMP:  22; 6HR MAX TEMP:  23;

DES MOINES IA  CLOUDY    22  12  65 W3        30.52S
6HR MIN TEMP:  22; 6HR MAX TEMP:  23;

DAVENPORT IA   CLOUDY    19  13  77 W6        30.54S WCI  11
6HR MIN TEMP:  18; 6HR MAX TEMP:  20;

CHICAGO IL     MOCLDY    18  12  77 W7        30.50S WCI   9
6HR MIN TEMP:  18; 6HR MAX TEMP:  21;

EAU CLAIRE WI  CLOUDY    14   5  67 W9        30.46R WCI   2
6HR MIN TEMP:  14; 6HR MAX TEMP:  16; 6HR PCP: TRACE;

LA CROSSE WI   CLOUDY    18  10  71 W12       30.50S WCI   5
6HR MIN TEMP:  17; 6HR MAX TEMP:  20;

$$

  *****  SOME NATIONAL WEATHER *****

CITY           SKY/WX    TMP DP  RH WIND       PRES   REMARKS
LA GUARDIA NY  CLEAR     32  15  49 NW13      30.28S WCI  22
6HR MIN TEMP:  32; 6HR MAX TEMP:  35;

RALEIGH NC     CLEAR     26  14  60 CALM      30.50S
6HR MIN TEMP:  26; 6HR MAX TEMP:  34;

ATLANTA GA     CLEAR     30  18  60 NW7       30.46R WCI  23
6HR MIN TEMP:  30; 6HR MAX TEMP:  36;

NEW ORLEANS LA CLEAR     44  26  49 NE8       30.50F
6HR MIN TEMP:  44; 6HR MAX TEMP:  49;

OKLAHOMA CITY  CLOUDY    33  16  49 S10       30.44F WCI  25
6HR MIN TEMP:  33; 6HR MAX TEMP:  34;

ALBUQUERQUE NM CLOUDY    35  26  69 CALM      30.31R
6HR MIN TEMP:  31; 6HR MAX TEMP:  44;

SALT LAKE CITY CLOUDY    32  30  92 NE3       30.05F
6HR MIN TEMP:  32; 6HR MAX TEMP:  36;

LOS ANGELES CA MOCLDY    59  58  96 E3        30.19R
6HR MIN TEMP:  59; 6HR MAX TEMP:  61;

BOISE ID       CLOUDY  C1F1C2F2C3F3C4F4C5F5C6F6C7F7C8F8C9F9CaFaCbFbCcFcCd!



USA.gov is the U.S. government's official web portal to all federal, state and local government web resources and services.